Flag for Canada Weather past 2 weeks in Sherbrooke, Quebec, Canada

Now
63 °F

Sunny.


Feels Like: 63 °F
Forecast: 57 / 82 °F
Wind: 2 mph from Southeast

Location: Sherbrooke

Current Time: Sep 1, 2015 at 9:07:58 PM

Latest Report: Sep 1, 2015 at 8:00 PM


Visibility: 9 mi

Pressure: 30.03 "Hg

Humidity: 88%

Dew point: 59 °F

Location of SherbrookeLocation

Historic Weather in Sherbrooke — Graph

°F

Sherbrooke temperature yesterday

Maximum temperature yesterday: 75 °F (at 1:00 PM)
Minimum temperature yesterday: 59 °F (at 2:00 AM)
Average temperature yesterday: 67 °F

Past Weeks' High & Low Weather Summary

 TemperatureHumidityPressure
High88 °F (Aug 19, 3:00 PM)100% (Aug 18, 2:55 AM)30.21 "Hg (Aug 18, 2:55 AM)
Low48 °F (Aug 29, 5:02 AM)42% (Aug 23, 12:00 PM)29.82 "Hg (Aug 24, 5:00 PM)
Average66 °F82%30.01 "Hg
* Reported Aug 17 8:00 PM — Sep 1 8:00 PM, Sherbrooke, Weather by CustomWeather, © 2015

Note: Actual official high and low records may vary slightly from our data, if they occured in-between our weather recording intervals... More about our weather records

Advertising

Sherbrooke weather history for previous 24 hours

 ConditionsComfort  
Time TempWeatherWind HumidityBarometerVisibility
8:00 PM
Tue, Sep 1
63 °FSunny.2 mph88%30.03 "Hg9 mi
7:00 PM72 °FSunny.5 mph69%30.02 "Hg9 mi
6:00 PM75 °FSunny.5 mph57%30.01 "Hg9 mi
5:00 PM75 °FSunny.3 mph54%30.03 "Hg9 mi
4:00 PM75 °FSunny.8 mph50%30.03 "Hg9 mi
3:00 PM75 °FSunny.8 mph50%30.03 "Hg9 mi
2:00 PM73 °FSunny.7 mph50%30.05 "Hg9 mi
1:00 PM72 °FSunny.8 mph57%30.06 "Hg9 mi
12:00 PM70 °FSunny.5 mph57%30.08 "Hg9 mi
11:00 AM68 °FSunny.2 mph64%30.09 "Hg9 mi
10:00 AM61 °FSunny.2 mph88%30.09 "Hg9 mi
9:00 AM55 °FFog.No wind100%30.09 "Hg0 mi
8:00 AM54 °FFog.No wind94%30.09 "Hg0 mi
7:00 AM50 °FFog.No wind100%30.08 "Hg0 mi
6:00 AM50 °FFog.6 mph94%30.06 "Hg0 mi
5:00 AM48 °FFog.6 mph100%30.04 "Hg0 mi
4:00 AM52 °FFog.3 mph100%30.03 "Hg1 mi
3:54 AM50 °FFog.3 mph100%30.03 "Hg1 mi
3:00 AM52 °FFog.No wind100%30.02 "Hg1 mi
2:47 AM54 °FFog.No wind94%30.01 "Hg1 mi
2:00 AM55 °FFog.No wind94%30.00 "Hg1 mi
1:00 AM57 °FClear.3 mph100%30.01 "Hg8 mi
12:51 AM59 °FFog.3 mph94%30.01 "Hg6 mi
11:00 PM
Mon, Aug 31
61 °FFog.2 mph100%29.98 "Hg6 mi
10:00 PM63 °FMostly cloudy.No wind94%29.97 "Hg9 mi
9:00 PM63 °FPassing clouds.No wind94%29.96 "Hg9 mi
Weather by CustomWeather, © 2015

See weather overviewHow to use our weather pages